sat.trackr.live / text

‹ back to catalog

ONEWEB-0087

NORAD 45451 · 2020-020AD

PAYLOAD ACTIVE UNKNOWN

§ Identity

Operator
Country
UK
Launch date
2020-03-21
Launch site
TYMSC
Launch vehicle
Mass (kg)
RCS (m²)

Purposes: comms

External: N2YO · Heavens-Above · Gunter

§ Orbital elements

Epoch: 2026-05-25T03:24:48.117312Z

Period
109.81 min
Inclination
87.8925°
Eccentricity
0.0001977
Mean motion
13.11414049 rev/d
Perigee alt
1,216.2 km
Apogee alt
1,219.2 km
Semi-major
7,595.8 km
B*
-7.8078e-4
RAAN
25.6240°
Arg perigee
74.2845°
Mean anomaly
285.8501°
Rev number
29,956

§ Raw data

ONEWEB-00871 45451U 20020AD  26145.14222358 -.00000264  00000+0 -78078-3 0  99942 45451  87.8925  25.6240 0001977  74.2845 285.8501 13.11414049299561

JSON: /api/v1/satellites/45451 · /tle

For live sub-satellite position, see the globe view (requires WebGL).

§ Visibility from observer

Set your observer location to see the next 7 days of passes ≥ 10°. The values pass through the URL so the page stays shareable.

No JS? Fill the form by hand. The geolocation button needs JavaScript.